Regional Weather Roundup
Issued by NWS Charleston, WV

Home | Current Version | Previous Version | Graphics & Text | Print | Product List | Glossary On
Versions: 1 2 3 4 5 6 7 8 9 10 11 12 13 14 15 16 17 18 19 20 21 22 23 24 25 26 27 28 29 30 31 32 33 34 35 36 37 38 39 40 41 42 43 44 45 46 47 48 49 50
000
ASUS41 KRLX 031310
RWRRLX
West Virginia Regional Weather Roundup
National Weather Service Charleston WV
800 AM EST TUE MAR 03 2015

Note: "fair" indicates few or no clouds below 12,000 feet with no
significant weather and/or obstructions to visibility.

WVZ003-031400-
Northern Panhandle of West Virginia

CITY           SKY/WX    TMP DP  RH WIND       PRES   REMARKS
WHEELING       CLOUDY    24  15  68 E13       30.16F
$$

WVZ009-031400-
Northwest West Virginia

CITY           SKY/WX    TMP DP  RH WIND       PRES   REMARKS
PARKERSBURG    CLOUDY    28  17  63 SE5       30.19F
$$

WVZ006-031400-
Western West Virginia

CITY           SKY/WX    TMP DP  RH WIND       PRES   REMARKS
HUNTINGTON     MIX PCPN  30  24  78 E3        30.16F
$$

WVZ015-031400-
West Central West Virginia

CITY           SKY/WX    TMP DP  RH WIND       PRES   REMARKS
CHARLESTON     FRZ RAIN  31  23  72 CALM      30.17S
$$

WVZ022-031-031400-
North Central West Virginia

CITY           SKY/WX    TMP DP  RH WIND       PRES   REMARKS
CLARKSBURG     CLOUDY    27  21  78 NE3       30.19F
MORGANTOWN     CLOUDY    29  14  53 NE5       30.20F
$$

WVZ025-035-042-045-031400-
Southern West Virginia

CITY           SKY/WX    TMP DP  RH WIND       PRES   REMARKS
BECKLEY        CLOUDY    34  20  56 SE8       30.17R
LOGAN          LGT RAIN  37  28  70 CALM      30.12R
BLUEFIELD      CLOUDY    37  21  52 S9G18     30.20R
LEWISBURG      CLOUDY    31  21  68 N7        30.24R
$$

WVZ047-031400-
Northern Mountains of West Virginia

CITY           SKY/WX    TMP DP  RH WIND       PRES   REMARKS
ELKINS         CLOUDY    28  22  78 CALM      30.20S
$$

WVZ052-031400-
Eastern Panhandle of West Virginia

CITY           SKY/WX    TMP DP  RH WIND       PRES   REMARKS
MARTINSBURG    PTSUNNY   28  16  60 CALM      30.40R
PETERSBURG     CLOUDY    29  17  62 N3        30.34F
$$


USA.gov is the U.S. government's official web portal to all federal, state and local government web resources and services.